Weather in Selitrennoye

Russia / Astrakhan Oblast     47°10′04″N   47°27′09″E
temp.,
°C
wind,
m/s
gust,
m/s
humid.,
%
clouds,
%
prec.,
mm/h
press.,
hPa
HPBL,
m
31 july, sat
sat3101:00+24ssw48360 0.0 1011133
04:00+23sw22390 0.0 101114
07:00+25sse45330 0.0 1011143
10:00+30s44210 0.0 1011765
13:00+33s33145 0.0 10112103
16:00+35sw34131 0.0 10102473
19:00+34nw221657 0.0 1009179
22:00+28se4624100 0.0 101178
1 august, sun
sun101:00+25sse44435 0.0 101155
04:00+23s44543 0.0 101157
07:00+25s35534 0.0 1012149
10:00+31ssw23325 0.0 1012711
13:00+36s34195 0.0 10112656
16:00+38ese45163 0.0 10103502
19:00+36se56162 0.0 1010738
22:00+30se46212 0.0 101172
2 august, mon
mon201:00+27sse46287 0.0 101274
04:00+25s44375 0.0 101149
07:00+27se123978 0.0 101256
10:00+34sse342141 0.0 1013661
13:00+39se351247 0.0 10123471
16:00+40s3510100 0.0 10104369
19:00+36ssw4614100 0.0 1010230
22:00+30sw441798 0.0 101141
3 august, tue
tue301:00+28ssw232071 0.0 101014
04:00+27s3321100 0.0 101118
07:00+29sw112665 0.0 101111
10:00+35ese221330 0.0 1011732
13:00+39s25104 0.0 10093420
16:00+40wsw1591 0.0 10084212
19:00+38wsw45110 0.0 1007246
22:00+31ssw58153 0.0 100998
4 august, wed
wed401:00+28ssw510210 0.0 1008133
04:00+26ssw57230 0.0 100993
07:00+27wsw36250 0.0 1010128
10:00+34n22160 0.0 1010492
13:00+39wsw33125 0.0 10093046
16:00+40w42115 0.0 10083890
19:00+37w44155 0.0 1007261
22:00+27n71347100 0.0 1010332